Location: Bittkow
(50.3000°N, 19.0000°E)
Time: 03:36:09
(UTC+00:00)

Cosmos 1656 - Pass Details

Date: 19 September 2020
Orbit: 797 x 850 km, 71.1° (Epoch: 18 October)

Event Time Altitude Azimuth Distance (km) Brightness Sun altitude
Exits shadow 01:30:39 83° 196° (SSW) 821 3.4 -26.6°
Maximum altitude 01:30:53 89° 119° (ESE) 816 3.5 -26.5°
Drops below altitude 10° 01:36:25 10° 29° (NNE) 2,419 7.0 -25.9°
Sets 01:38:52 0° 30° (NNE) 3,363 7.9 -25.5°
